GW5036 Weather Reports


time (UTC)temp
C
wind
direction
speed
KPH
gust
KPH
rain 1hr
cm
rain 24hr
cm
rain mn
cm
humidity
%
barometer
mb
20260504081808 10 127 0.0 0.0 0.00 0.00 0.00 77 993.2
20260504081307 10 115 0.0 0.0 0.00 0.00 0.00 77 993.3
20260504080807 10 101 0.0 0.0 0.00 0.00 0.00 77 993.2
20260504080525 10 101 0.0 0.0 0.00 0.00 0.00 76 993.3
20260504070251 11 117 0.0 0.0 0.00 0.00 0.00 75 994.2
20260504060246 13 237 6.4 9.7 0.00 0.00 0.00 75 995.0
20260504050511 14 255 12.9 17.7 0.00 0.00 0.00 68 994.9
20260504045732 14 245 12.9 19.3 0.00 0.00 0.00 70 994.9
20260504045231 14 264 12.9 19.3 0.00 0.00 0.00 69 995.0
20260504044728 14 237 14.5 17.7 0.00 0.00 0.00 69 994.9
20260504044227 15 253 12.9 17.7 0.00 0.00 0.00 68 994.9
20260504043728 14 247 12.9 17.7 0.00 0.00 0.00 67 994.8
20260504043227 15 249 12.9 17.7 0.00 0.00 0.00 69 994.9
20260504042725 15 252 12.9 17.7 0.00 0.00 0.00 68 994.8
20260504042225 15 248 12.9 17.7 0.00 0.00 0.00 68 994.9
20260504041223 15 248 11.3 16.1 0.00 0.00 0.00 67 994.8
20260504040724 15 253 9.7 12.9 0.00 0.00 0.00 69 994.9
20260504040223 15 242 9.7 12.9 0.00 0.00 0.00 68 994.8
20260504035723 15 256 9.7 14.5 0.00 0.00 0.00 67 994.8
20260504035223 15 249 11.3 14.5 0.00 0.00 0.00 68 994.9
20260504034949 15 229 11.3 14.5 0.00 0.00 0.00 64 994.9
20260504034224 15 243 9.7 14.5 0.00 0.00 0.00 65 994.9
20260504033722 16 241 9.7 14.5 0.00 0.00 0.00 65 995.0
20260504033222 16 240 11.3 14.5 0.00 0.00 0.00 64 995.1
20260504032724 16 238 9.7 14.5 0.00 0.00 0.00 65 995.1
20260504032223 16 222 8.0 14.5 0.00 0.00 0.00 64 995.1
20260504031723 16 217 6.4 12.9 0.00 0.00 0.00 64 995.1
20260504031223 16 233 8.0 12.9 0.00 0.00 0.00 63 995.2
20260504030723 16 237 8.0 12.9 0.00 0.00 0.00 63 995.1
20260504030221 16 226 9.7 16.1 0.00 0.00 0.00 63 995.1
20260504025721 16 216 8.0 16.1 0.00 0.00 0.00 63 995.1
20260504025221 16 233 6.4 12.9 0.00 0.00 0.00 63 995.1
20260504024721 16 257 8.0 12.9 0.00 0.00 0.00 64 995.2
20260504024218 16 248 6.4 12.9 0.00 0.00 0.00 64 995.2
20260504023719 15 243 4.8 12.9 0.00 0.00 0.00 66 995.2
20260504023218 15 236 1.6 12.9 0.00 0.00 0.00 67 995.1
20260504022719 14 238 0.0 4.8 0.00 0.00 0.00 73 995.1
20260504022444 14 235 0.0 1.6 0.00 0.00 0.00 74 995.1
20260504021718 14 271 0.0 1.6 0.00 0.00 0.00 75 995.1
20260504021217 14 238 0.0 1.6 0.00 0.00 0.00 75 995.1
20260504020717 15 239 0.0 1.6 0.00 0.00 0.00 72 995.1
20260504020217 15 168 0.0 0.0 0.00 0.00 0.00 67 995.0
20260504015716 14 169 0.0 1.6 0.00 0.00 0.00 68 995.0
20260504015216 14 176 0.0 1.6 0.00 0.00 0.00 71 995.0
20260504014716 14 207 0.0 1.6 0.00 0.00 0.00 73 995.0
20260504014217 15 207 0.0 1.6 0.00 0.00 0.00 73 994.9
20260504013714 15 227 0.0 1.6 0.00 0.00 0.00 72 994.9
20260504013214 15 227 0.0 0.0 0.00 0.00 0.00 71 994.9
20260504012213 16 226 1.6 3.2 0.00 0.00 0.00 68 994.8
20260504011713 16 222 1.6 3.2 0.00 0.00 0.00 68 994.8
20260504011212 17 248 0.0 3.2 0.00 0.00 0.00 64 994.7
20260504010713 17 253 0.0 1.6 0.00 0.00 0.00 57 994.6
20260504010213 18 210 0.0 1.6 0.00 0.00 0.00 56 994.5
20260504005713 18 226 0.0 1.6 0.00 0.00 0.00 55 994.5
20260504005212 18 226 0.0 4.8 0.00 0.00 0.00 55 994.4
20260504004713 18 225 1.6 4.8 0.00 0.00 0.00 55 994.5
20260504004213 19 217 3.2 6.4 0.00 0.00 0.00 55 994.5
20260504003712 19 228 4.8 6.4 0.00 0.00 0.00 54 994.6
20260504003213 19 238 6.4 6.4 0.00 0.00 0.00 54 994.5
20260504002933 20 246 6.4 8.0 0.00 0.00 0.00 53 994.5
20260504002210 20 257 6.4 14.5 0.00 0.00 0.00 51 994.5
20260504001709 20 261 8.0 14.5 0.00 0.00 0.00 48 994.6
20260504001209 20 293 9.7 17.7 0.00 0.00 0.00 49 994.6
20260504000709 20 262 12.9 20.9 0.00 0.00 0.00 51 994.6
20260504000208 20 257 14.5 24.1 0.00 0.00 0.00 53 994.6
20260503235707 20 278 12.9 24.1 0.00 0.00 0.00 50 994.5
20260503235205 20 283 14.5 24.1 0.00 0.00 0.00 50 994.6
20260503234705 20 263 14.5 24.1 0.00 0.00 0.00 51 994.6
20260503234205 20 297 12.9 20.9 0.00 0.00 0.00 50 994.7
20260503233702 20 261 14.5 20.9 0.00 0.00 0.00 50 994.7
20260503233203 20 249 16.1 24.1 0.00 0.00 0.00 50 994.7
20260503232703 20 278 17.7 24.1 0.00 0.00 0.00 48 994.7
20260503232203 20 256 19.3 27.4 0.00 0.00 0.00 50 994.8
20260503231658 20 263 20.9 27.4 0.00 0.00 0.00 50 995.0
20260503231158 20 247 19.3 35.4 0.00 0.00 0.00 47 994.9
20260503230659 20 264 20.9 35.4 0.00 0.00 0.00 48 995.1
20260503230158 20 261 20.9 29.0 0.00 0.00 0.00 48 995.1
20260503225658 20 285 19.3 29.0 0.00 0.00 0.00 48 994.9
20260503225158 19 261 19.3 29.0 0.00 0.00 0.00 49 995.0
20260503224658 19 247 20.9 29.0 0.00 0.00 0.00 52 995.1
20260503224158 19 251 20.9 35.4 0.00 0.00 0.00 51 995.1
20260503223658 20 286 20.9 35.4 0.00 0.00 0.00 47 995.1
20260503223151 19 258 24.1 33.8 0.00 0.00 0.00 48 995.1
20260503222643 19 264 25.7 33.8 0.00 0.00 0.00 47 995.1
20260503222138 19 245 24.1 33.8 0.00 0.00 0.00 48 995.1
20260503221631 19 261 22.5 33.8 0.00 0.00 0.00 49 995.1
20260503221347 19 283 27.4 43.5 0.00 0.00 0.00 49 995.1
20260503220620 19 247 29.0 43.5 0.00 0.00 0.00 47 995.0
20260503220115 19 240 25.7 38.6 0.00 0.00 0.00 49 995.1
20260503215830 19 250 24.1 41.8 0.00 0.00 0.00 48 995.1
20260503215326 19 239 22.5 41.8 0.00 0.00 0.00 49 995.3
20260503214556 19 247 25.7 38.6 0.00 0.00 0.00 52 995.2
20260503214049 19 248 27.4 41.8 0.00 0.00 0.00 51 995.2
20260503213544 19 243 25.7 41.8 0.00 0.00 0.00 50 995.2
20260503213038 18 255 27.4 40.2 0.00 0.00 0.00 51 995.3
20260503212531 18 253 32.2 61.2 0.00 0.00 0.00 51 995.3
20260503212026 18 257 30.6 61.2 0.00 0.00 0.00 52 995.5
20260503211520 18 248 30.6 48.3 0.00 0.00 0.00 52 995.4
20260503210508 18 231 30.6 43.5 0.00 0.00 0.00 51 995.7
20260503210001 18 257 32.2 45.1 0.00 0.00 0.00 53 995.8
20260503205456 18 225 32.2 45.1 0.00 0.00 0.00 51 996.0
20260503204950 18 246 30.6 46.7 0.00 0.00 0.00 53 996.1
20260503204444 18 228 33.8 53.1 0.00 0.00 0.00 52 996.1
20260503203938 17 271 33.8 53.1 0.00 0.00 0.00 52 996.2
20260503203432 17 276 33.8 49.9 0.00 0.00 0.00 50 996.3
20260503202421 18 236 33.8 51.5 0.00 0.00 0.00 50 996.4
20260503201914 17 239 33.8 51.5 0.00 0.00 0.00 51 996.4
20260503201414 17 240 33.8 48.3 0.00 0.00 0.00 51 996.4
20260503200915 17 205 33.8 46.7 0.00 0.00 0.00 49 996.4
20260503200413 17 207 32.2 45.1 0.00 0.00 0.00 50 996.7
20260503200137 17 241 25.7 45.1 0.00 0.00 0.00 52 996.8
20260503195414 17 250 22.5 37.0 0.00 0.00 0.00 56 997.0
20260503194916 16 203 25.7 45.1 0.00 0.00 0.00 57 997.0
20260503194414 16 224 24.1 45.1 0.00 0.00 0.00 57 997.2
20260503193914 16 244 25.7 38.6 0.00 0.00 0.00 58 997.2
20260503193415 16 236 29.0 38.6 0.00 0.00 0.00 61 997.4
20260503192913 15 236 32.2 45.1 0.00 0.00 0.00 59 997.5
20260503192410 15 224 33.8 53.1 0.00 0.00 0.00 59 997.8
20260503191909 15 250 33.8 53.1 0.00 0.00 0.00 60 997.8
20260503191635 15 227 32.2 53.1 0.00 0.00 0.00 59 997.9
20260503190910 15 215 29.0 53.1 0.00 0.00 0.00 56 997.8
20260503190410 15 235 25.7 49.9 0.00 0.00 0.00 55 997.7
20260503190131 16 213 24.1 49.9 0.00 0.00 0.00 56 997.7
20260503185409 16 231 22.5 40.2 0.00 0.00 0.00 56 997.6
20260503185133 15 219 24.1 41.8 0.00 0.00 0.00 55 997.7
20260503184410 15 240 22.5 41.8 0.00 0.00 0.00 55 997.6
20260503183911 15 212 19.3 35.4 0.00 0.00 0.00 55 997.7
20260503183410 15 211 20.9 38.6 0.00 0.00 0.00 55 997.6
20260503182910 15 201 22.5 38.6 0.00 0.00 0.00 55 997.7
20260503182634 15 231 24.1 38.6 0.00 0.00 0.00 54 997.8
20260503182134 15 216 25.7 46.7 0.00 0.00 0.00 54 997.8
20260503181410 15 219 24.1 46.7 0.00 0.00 0.00 54 997.9
20260503180910 15 231 24.1 49.9 0.00 0.00 0.00 54 998.0
20260503180635 15 149 24.1 49.9 0.00 0.00 0.00 54 998.4
20260503175910 15 190 24.1 48.3 0.00 0.00 0.00 55 998.1
20260503175635 15 240 25.7 48.3 0.00 0.00 0.00 56 998.2
20260503174911 15 144 25.7 41.8 0.00 0.00 0.00 56 998.3
20260503174639 15 203 24.1 45.1 0.00 0.00 0.00 57 998.4
20260503173911 14 205 22.5 45.1 0.00 0.00 0.00 57 998.5
20260503173409 14 174 22.5 41.8 0.00 0.00 0.00 59 998.6
20260503172910 14 166 22.5 38.6 0.00 0.00 0.00 61 998.8
20260503172627 14 219 22.5 40.2 0.00 0.00 0.00 61 998.9
20260503171911 13 174 25.7 40.2 0.00 0.00 0.00 62 999.0
20260503171409 13 224 22.5 40.2 0.00 0.00 0.00 63 999.3
20260503170910 13 191 19.3 38.6 0.00 0.00 0.00 64 999.5
20260503170409 13 221 20.9 40.2 0.00 0.00 0.00 66 999.6
20260503170129 12 207 22.5 40.2 0.00 0.00 0.00 66 999.7
20260503150903 12 257 30.6 46.7 0.00 0.00 0.00 66 1001.9
20260503150401 12 248 37.0 51.5 0.00 0.00 0.00 65 1001.8
20260503130845 10 253 25.7 35.4 0.00 0.00 0.00 61 1002.8
20260503110653 9 244 24.1 32.2 0.00 0.00 0.00 60 1002.0
20260503110149 9 250 24.1 32.2 0.00 0.00 0.00 63 1002.1